"Pseudo-MPEC" for C8KPCH2

Created 2022 Dec 22 10:22:10 UT using Find_Orb

Click here for an explanation of pseudo-MPECs

 
 Astrometry: 
     C8KPCH2*1C2022 12 02.32832707 18 00.900+27 07 12.97   ~C28bx19.62GVNEOCPG96
     C8KPCH2 1C2022 12 02.33854807 18 08.770+27 01 37.60   ~C28b 19.95GVNEOCPG96
     C8KPCH2 1C2022 12 02.34362707 18 12.625+26 58 50.92   ~C28bx20.17GVNEOCPG96
     C8KPCH2 1C2022 12 02.37283707 18 34.250+26 43 07.93   ~C29b 19.23GVNEOCPG96
     C8KPCH2 1C2022 12 02.37393307 18 35.118+26 42 32.22   ~C29b 19.39GVNEOCPG96
     C8KPCH2 1C2022 12 02.37502907 18 35.888+26 41 56.69   ~C29b 19.83GVNEOCPG96
     C8KPCH2 1C2022 12 02.37612407 18 36.677+26 41 21.55   ~C29b 19.80GVNEOCPG96
     C8KPCH2 1C2022 12 02.41776707 19 06.520+26 19 00.00   ~C2Ab 19.28GVNEOCPG96
     C8KPCH2 1C2022 12 02.41886407 19 07.290+26 18 24.40   ~C2Ab 19.93GVNEOCPG96
     C8KPCH2 1C2022 12 02.41996007 19 08.070+26 17 49.20   ~C2Ab 19.91GVNEOCPG96

Station data:
(G96) Mt. Lemmon Survey  (N32.442751 W110.788720)  US/Arizona.  Observers T.
   A. Pruyne, B. M. Africano, E. J. Christensen, G. A. Farneth, D. C. Fuls,
   A. R. Gibbs, A. D. Grauer, H. Gröller, J. A. Johnson, R. A. Kowalski, S.
   M. Larson, G. J. Leonard, D. Rankin, R. L. Seaman, F. C. Shelly, K. W.
   Wierzchoś. 1.5-m reflector + 10K CCD.

Orbital elements:  C8KPCH2
   Perihelion 2022 Nov 19.46327 +/- 0.584 TT = 11:07:06 (JD 2459902.96327)
Epoch 2022 Dec  2.0 TT = JDT 2459915.5   Earth MOID: 0.0120      AutoNEOCP
M   4.96444316 +/- 0.6              (J2000 ecliptic)
n   0.39599196 +/- 0.0468           Peri.  163.80111 +/- 0.7
a   1.83658823 +/- 0.173            Node   251.11200 +/- 0.06
e   0.4618231 +/- 0.0437            Incl.    6.58883 +/- 0.6
P   2.49/909.09d           H 27.21  G  0.15   U 10.7
q 0.98840922 +/- 0.0019    Q 2.68476724 +/- 0.346
8 of 10 observations 2022 Dec. 2 (2.0 hr); mean residual 0".19
Residuals in arcseconds: 
221202 G96( .78-  3.7+)   221202 G96  .45+  .08-    221202 G96  .05-  .11-    
221202 G96  .00   .01+    221202 G96  .06+  .21-    221202 G96  .02+  .09-    
221202 G96( .16+  2.0-)   221202 G96  .06-  .02+    
221202 G96  .45-  .23+    221202 G96  .02+  .22+    

Ephemerides (geocentric):
Date (UTC) HH   RA             Dec           delta  r     elong  mag " sig PA
---- --------  ------------   ------------  ------ ------ -----  --- --------
2022 12 22 10  08 00 59.504   -07 05 47.79  .09973 1.0596 137.7 23.9 2662 179
2022 12 22 11  08 00 58.957   -07 06 12.57  .09991 1.0598 137.7 23.9 2664 179
2022 12 22 12  08 00 58.404   -07 06 37.15  .10009 1.0599 137.7 23.9 2665 179
2022 12 22 13  08 00 57.846   -07 07 01.53  .10027 1.0601 137.7 23.9 2667 178
2022 12 22 14  08 00 57.283   -07 07 25.70  .10045 1.0603 137.8 23.9 2668 178
2022 12 22 15  08 00 56.716   -07 07 49.68  .10063 1.0605 137.8 23.9 2670 178
2022 12 22 16  08 00 56.143   -07 08 13.46  .10082 1.0606 137.8 23.9 2671 178
2022 12 22 17  08 00 55.565   -07 08 37.05  .10100 1.0608 137.9 23.9 2673 178
2022 12 22 18  08 00 54.983   -07 09 00.43  .10118 1.0610 137.9 23.9 2674 178
2022 12 22 19  08 00 54.396   -07 09 23.62  .10136 1.0611 137.9 24.0 2676 178
2022 12 22 20  08 00 53.803   -07 09 46.62  .10154 1.0613 137.9 24.0 2677 178
2022 12 22 21  08 00 53.206   -07 10 09.42  .10173 1.0615 138.0 24.0 2679 178
2022 12 22 22  08 00 52.605   -07 10 32.03  .10191 1.0617 138.0 24.0 2680 178
2022 12 22 23  08 00 51.998   -07 10 54.44  .10209 1.0618 138.0 24.0 2682 178
2022 12 23 00  08 00 51.387   -07 11 16.67  .10227 1.0620 138.1 24.0 2683 178
2022 12 23 01  08 00 50.771   -07 11 38.70  .10245 1.0622 138.1 24.0 2685 178
2022 12 23 02  08 00 50.150   -07 12 00.54  .10264 1.0623 138.1 24.0 2686 178
2022 12 23 03  08 00 49.525   -07 12 22.19  .10282 1.0625 138.1 24.0 2688 178
2022 12 23 04  08 00 48.895   -07 12 43.66  .10300 1.0627 138.2 24.0 2689 178
2022 12 23 05  08 00 48.261   -07 13 04.93  .10318 1.0629 138.2 24.0 2691 178
2022 12 23 06  08 00 47.622   -07 13 26.02  .10337 1.0630 138.2 24.0 2692 178
2022 12 23 07  08 00 46.978   -07 13 46.92  .10355 1.0632 138.3 24.0 2693 178
2022 12 23 08  08 00 46.330   -07 14 07.64  .10373 1.0634 138.3 24.0 2695 178
2022 12 23 09  08 00 45.677   -07 14 28.17  .10391 1.0635 138.3 24.0 2696 178
2022 12 23 10  08 00 45.020   -07 14 48.51  .10410 1.0637 138.3 24.0 2698 178
2022 12 23 11  08 00 44.359   -07 15 08.67  .10428 1.0639 138.4 24.0 2699 178
2022 12 23 12  08 00 43.693   -07 15 28.65  .10446 1.0641 138.4 24.0 2701 178
2022 12 23 13  08 00 43.022   -07 15 48.45  .10464 1.0642 138.4 24.0 2702 178
2022 12 23 14  08 00 42.348   -07 16 08.06  .10483 1.0644 138.5 24.0 2704 178
2022 12 23 15  08 00 41.668   -07 16 27.50  .10501 1.0646 138.5 24.0 2705 178
2022 12 23 16  08 00 40.985   -07 16 46.75  .10519 1.0648 138.5 24.0 2706 178
2022 12 23 17  08 00 40.297   -07 17 05.82  .10538 1.0649 138.5 24.0 2708 178
2022 12 23 18  08 00 39.606   -07 17 24.72  .10556 1.0651 138.6 24.0 2709 178
2022 12 23 19  08 00 38.909   -07 17 43.43  .10574 1.0653 138.6 24.0 2711 178
2022 12 23 20  08 00 38.209   -07 18 01.97  .10593 1.0655 138.6 24.0 2712 178
2022 12 23 21  08 00 37.505   -07 18 20.33  .10611 1.0656 138.7 24.0 2713 178
2022 12 23 22  08 00 36.796   -07 18 38.52  .10629 1.0658 138.7 24.0 2715 178
2022 12 23 23  08 00 36.083   -07 18 56.53  .10647 1.0660 138.7 24.0 2716 178
2022 12 24 00  08 00 35.366   -07 19 14.36  .10666 1.0662 138.7 24.0 2717 178
2022 12 24 01  08 00 34.645   -07 19 32.02  .10684 1.0663 138.8 24.0 2719 178
2022 12 24 02  08 00 33.920   -07 19 49.51  .10702 1.0665 138.8 24.1 2720 178
2022 12 24 03  08 00 33.191   -07 20 06.82  .10721 1.0667 138.8 24.1 2722 178
2022 12 24 04  08 00 32.458   -07 20 23.96  .10739 1.0669 138.9 24.1 2723 178
2022 12 24 05  08 00 31.720   -07 20 40.93  .10757 1.0670 138.9 24.1 2724 178
2022 12 24 06  08 00 30.979   -07 20 57.73  .10776 1.0672 138.9 24.1 2726 178
2022 12 24 07  08 00 30.234   -07 21 14.36  .10794 1.0674 138.9 24.1 2727 178
2022 12 24 08  08 00 29.485   -07 21 30.82  .10812 1.0676 139.0 24.1 2728 178
2022 12 24 09  08 00 28.733   -07 21 47.11  .10831 1.0678 139.0 24.1 2730 178